Time,TemperatureF,DewpointF,PressureIn,WindDirection,WindDirectionDegrees,WindSpeedMPH,WindSpeedGustMPH,Humidity,HourlyPrecipIn,Conditions,Clouds,dailyrainin,SoftwareType,DateUTC
2013-03-29 00:03:00,68.4,61.5,30.03,East,88,3.0,4.0,79,0.00,,,0.00,meteohub,2013-03-29 10:03:00,
2013-03-29 00:08:00,68.4,61.5,30.02,East,94,1.0,4.0,79,0.00,,,0.00,meteohub,2013-03-29 10:08:00,
2013-03-29 00:13:00,68.4,61.5,30.02,ESE,109,0.0,4.0,79,0.00,,,0.00,meteohub,2013-03-29 10:13:00,
2013-03-29 00:18:00,68.2,61.3,30.02,ENE,73,2.0,3.0,79,0.00,,,0.00,meteohub,2013-03-29 10:18:00,
2013-03-29 00:21:00,68.2,61.3,30.02,ENE,78,1.0,2.0,79,0.00,,,0.00,meteohub,2013-03-29 10:21:00,
2013-03-29 00:27:00,68.2,61.3,30.02,East,85,3.0,3.0,79,0.00,,,0.00,meteohub,2013-03-29 10:27:00,
2013-03-29 00:37:00,68.0,61.5,30.01,NNW,345,0.0,3.0,80,0.00,,,0.00,meteohub,2013-03-29 10:37:00,
2013-03-29 00:42:00,68.0,61.9,30.02,NNW,342,0.0,3.0,81,0.00,,,0.00,meteohub,2013-03-29 10:42:00,
2013-03-29 00:47:00,68.2,62.1,30.01,NNW,342,0.0,1.0,81,0.00,,,0.00,meteohub,2013-03-29 10:47:00,
2013-03-29 00:50:00,67.8,61.3,30.01,North,6,1.0,1.0,80,0.00,,,0.00,meteohub,2013-03-29 10:50:00,
2013-03-29 00:52:00,68.2,62.1,30.01,NNW,342,0.0,1.0,81,0.00,,,0.00,meteohub,2013-03-29 10:52:00,
2013-03-29 01:02:00,66.9,60.6,30.01,East,89,3.0,3.0,80,0.00,,,0.00,meteohub,2013-03-29 11:02:00,
2013-03-29 01:07:00,66.4,60.4,30.01,East,84,2.0,3.0,81,0.00,,,0.00,meteohub,2013-03-29 11:07:00,
2013-03-29 01:10:00,66.4,60.8,30.01,East,94,3.0,3.0,82,0.00,,,0.00,meteohub,2013-03-29 11:10:00,
2013-03-29 01:12:00,66.4,60.4,30.01,East,82,2.0,4.0,81,0.00,,,0.00,meteohub,2013-03-29 11:12:00,
2013-03-29 01:22:00,66.6,61.0,30.01,NW,325,0.0,4.0,82,0.00,,,0.00,meteohub,2013-03-29 11:22:00,
2013-03-29 01:27:00,66.6,61.0,30.01,NE,53,1.0,3.0,82,0.00,,,0.00,meteohub,2013-03-29 11:27:00,
2013-03-29 01:32:00,66.4,60.8,30.01,North,8,0.0,2.0,82,0.00,,,0.00,meteohub,2013-03-29 11:32:00,
2013-03-29 01:42:00,66.0,60.4,30.00,ENE,69,2.0,3.0,82,0.00,,,0.00,meteohub,2013-03-29 11:42:00,
2013-03-29 01:47:00,66.2,60.6,30.00,ENE,75,0.0,3.0,82,0.00,,,0.00,meteohub,2013-03-29 11:47:00,
2013-03-29 01:52:00,66.2,60.6,30.00,ENE,76,2.0,3.0,82,0.00,,,0.00,meteohub,2013-03-29 11:52:00,
2013-03-29 01:57:00,65.7,60.1,29.99,ENE,75,2.0,3.0,82,0.00,,,0.00,meteohub,2013-03-29 11:57:00,
2013-03-29 02:05:00,65.7,60.1,29.99,ENE,78,1.0,3.0,82,0.00,,,0.00,meteohub,2013-03-29 12:05:00,
2013-03-29 02:10:00,65.5,59.9,29.99,ENE,78,1.0,3.0,82,0.00,,,0.00,meteohub,2013-03-29 12:10:00,
2013-03-29 02:15:00,65.5,59.9,29.99,East,95,2.0,3.0,82,0.00,,,0.00,meteohub,2013-03-29 12:15:00,
2013-03-29 02:22:00,65.5,60.3,29.99,ENE,75,1.0,3.0,83,0.00,,,0.00,meteohub,2013-03-29 12:22:00,
2013-03-29 02:27:00,65.7,60.1,29.99,East,91,1.0,3.0,82,0.00,,,0.00,meteohub,2013-03-29 12:27:00,
2013-03-29 02:32:00,65.7,60.1,29.99,ESE,108,0.0,3.0,82,0.00,,,0.00,meteohub,2013-03-29 12:32:00,
2013-03-29 02:38:00,65.7,60.1,29.99,ESE,108,1.0,3.0,82,0.00,,,0.00,meteohub,2013-03-29 12:38:00,
2013-03-29 02:43:00,65.7,60.1,29.99,West,274,1.0,2.0,82,0.00,,,0.00,meteohub,2013-03-29 12:43:00,
2013-03-29 02:48:00,65.7,60.4,29.99,ESE,109,1.0,2.0,83,0.00,,,0.00,meteohub,2013-03-29 12:48:00,
2013-03-29 02:54:00,65.5,60.3,29.99,East,86,1.0,2.0,83,0.00,,,0.00,meteohub,2013-03-29 12:54:00,
2013-03-29 02:59:00,65.3,60.1,29.99,East,82,2.0,2.0,83,0.00,,,0.00,meteohub,2013-03-29 12:59:00,
2013-03-29 03:04:00,65.3,60.1,29.99,East,89,3.0,3.0,83,0.00,,,0.00,meteohub,2013-03-29 13:04:00,
2013-03-29 03:10:00,65.3,60.1,29.99,ESE,109,3.0,3.0,83,0.00,,,0.00,meteohub,2013-03-29 13:10:00,
2013-03-29 03:16:00,65.7,60.1,29.99,ESE,110,3.0,4.0,82,0.00,,,0.00,meteohub,2013-03-29 13:16:00,
2013-03-29 03:22:00,66.2,60.3,29.99,East,84,2.0,5.0,81,0.00,,,0.00,meteohub,2013-03-29 13:22:00,
2013-03-29 03:27:00,66.2,59.9,29.99,East,84,1.0,5.0,80,0.00,,,0.00,meteohub,2013-03-29 13:27:00,
2013-03-29 03:32:00,65.8,59.9,29.99,NW,325,1.0,5.0,81,0.00,,,0.00,meteohub,2013-03-29 13:32:00,
2013-03-29 03:37:00,66.0,60.4,29.98,North,11,0.0,4.0,82,0.00,,,0.00,meteohub,2013-03-29 13:37:00,
2013-03-29 03:42:00,65.8,59.9,29.98,East,86,3.0,4.0,81,0.00,,,0.00,meteohub,2013-03-29 13:42:00,
2013-03-29 03:47:00,65.5,59.5,29.98,ENE,73,2.0,3.0,81,0.00,,,0.00,meteohub,2013-03-29 13:47:00,
2013-03-29 03:52:00,65.1,59.5,29.98,East,96,2.0,4.0,82,0.00,,,0.00,meteohub,2013-03-29 13:52:00,
2013-03-29 03:57:00,64.9,59.4,29.98,ESE,108,2.0,4.0,82,0.00,,,0.00,meteohub,2013-03-29 13:57:00,
2013-03-29 04:02:00,64.9,59.7,29.97,ESE,106,3.0,4.0,83,0.00,,,0.00,meteohub,2013-03-29 14:02:00,
2013-03-29 04:07:00,65.5,60.3,29.98,East,92,3.0,4.0,83,0.00,,,0.00,meteohub,2013-03-29 14:07:00,
2013-03-29 04:13:00,65.5,60.3,29.98,East,92,3.0,4.0,83,0.00,,,0.00,meteohub,2013-03-29 14:13:00,
2013-03-29 04:19:00,66.0,60.4,29.98,East,90,2.0,5.0,82,0.00,,,0.00,meteohub,2013-03-29 14:19:00,
2013-03-29 04:24:00,66.4,60.8,29.98,ENE,69,3.0,5.0,82,0.00,,,0.00,meteohub,2013-03-29 14:24:00,
2013-03-29 04:31:00,66.4,60.4,29.97,ESE,110,3.0,4.0,81,0.00,,,0.00,meteohub,2013-03-29 14:31:00,
2013-03-29 04:37:00,66.2,60.3,29.98,East,81,2.0,5.0,81,0.00,,,0.00,meteohub,2013-03-29 14:37:00,
2013-03-29 04:42:00,66.2,60.3,29.98,East,96,3.0,5.0,81,0.00,,,0.00,meteohub,2013-03-29 14:42:00,
2013-03-29 04:47:00,66.2,60.3,29.98,ENE,65,2.0,4.0,81,0.00,,,0.00,meteohub,2013-03-29 14:47:00,
2013-03-29 04:48:00,66.0,60.1,29.98,ENE,65,3.0,4.0,81,0.00,,,0.00,meteohub,2013-03-29 14:48:00,
2013-03-29 04:52:00,66.0,59.7,29.98,ENE,75,1.0,5.0,80,0.00,,,0.00,meteohub,2013-03-29 14:52:00,
2013-03-29 04:57:00,65.8,59.5,29.98,East,96,5.0,5.0,80,0.00,,,0.00,meteohub,2013-03-29 14:57:00,
2013-03-29 05:02:00,66.0,59.7,29.98,East,93,4.0,5.0,80,0.00,,,0.00,meteohub,2013-03-29 15:02:00,
2013-03-29 05:07:00,66.4,60.1,29.98,East,90,3.0,5.0,80,0.00,,,0.00,meteohub,2013-03-29 15:07:00,
2013-03-29 05:09:00,66.4,59.7,29.98,ESE,110,2.0,5.0,79,0.00,,,0.00,meteohub,2013-03-29 15:09:00,
2013-03-29 05:12:00,66.4,59.7,29.98,ESE,120,0.0,5.0,79,0.00,,,0.00,meteohub,2013-03-29 15:12:00,
2013-03-29 05:17:00,66.2,59.5,29.99,NW,318,3.0,5.0,79,0.00,,,0.00,meteohub,2013-03-29 15:17:00,
2013-03-29 05:25:00,65.5,58.8,29.99,NW,319,1.0,4.0,79,0.00,,,0.00,meteohub,2013-03-29 15:25:00,
2013-03-29 05:29:00,65.5,58.8,29.99,North,357,1.0,4.0,79,0.00,,,0.00,meteohub,2013-03-29 15:29:00,
2013-03-29 05:32:00,65.7,59.4,29.99,NE,37,0.0,4.0,80,0.00,,,0.00,meteohub,2013-03-29 15:32:00,
2013-03-29 05:37:00,65.7,59.0,29.99,ESE,104,2.0,3.0,79,0.00,,,0.00,meteohub,2013-03-29 15:37:00,
2013-03-29 05:42:00,65.1,58.5,30.00,ESE,109,2.0,3.0,79,0.00,,,0.00,meteohub,2013-03-29 15:42:00,
2013-03-29 05:47:00,64.9,58.6,30.00,ESE,109,1.0,3.0,80,0.00,,,0.00,meteohub,2013-03-29 15:47:00,
2013-03-29 05:53:00,64.9,58.6,29.99,ENE,77,1.0,4.0,80,0.00,,,0.00,meteohub,2013-03-29 15:53:00,
2013-03-29 05:54:00,64.9,59.0,29.99,ENE,73,2.0,4.0,81,0.00,,,0.00,meteohub,2013-03-29 15:54:00,
2013-03-29 06:02:00,64.8,58.8,30.00,East,94,2.0,3.0,81,0.00,,,0.00,meteohub,2013-03-29 16:02:00,
2013-03-29 06:07:00,64.9,59.4,30.00,East,98,1.0,3.0,82,0.00,,,0.00,meteohub,2013-03-29 16:07:00,
2013-03-29 06:11:00,65.1,59.5,30.00,ENE,70,2.0,3.0,82,0.00,,,0.00,meteohub,2013-03-29 16:11:00,
2013-03-29 06:12:00,65.1,59.5,30.00,East,88,2.0,3.0,82,0.00,,,0.00,meteohub,2013-03-29 16:12:00,
2013-03-29 06:17:00,65.1,59.5,30.00,East,96,2.0,3.0,82,0.00,,,0.00,meteohub,2013-03-29 16:17:00,
2013-03-29 06:22:00,65.1,59.2,30.00,East,94,2.0,3.0,81,0.00,,,0.00,meteohub,2013-03-29 16:22:00,
2013-03-29 06:27:00,65.5,59.9,30.00,East,90,1.0,3.0,82,0.00,,,0.00,meteohub,2013-03-29 16:27:00,
2013-03-29 06:32:00,65.8,59.9,30.00,East,92,3.0,3.0,81,0.00,,,0.00,meteohub,2013-03-29 16:32:00,
2013-03-29 06:37:00,65.8,59.9,30.01,ESE,106,2.0,3.0,81,0.00,,,0.00,meteohub,2013-03-29 16:37:00,
2013-03-29 06:42:00,65.8,59.9,30.01,ESE,114,2.0,3.0,81,0.00,,,0.00,meteohub,2013-03-29 16:42:00,
2013-03-29 06:47:00,66.2,60.3,30.01,ESE,108,3.0,5.0,81,0.00,,,0.00,meteohub,2013-03-29 16:47:00,
2013-03-29 06:52:00,66.4,60.4,30.01,East,96,3.0,5.0,81,0.00,,,0.00,meteohub,2013-03-29 16:52:00,
2013-03-29 06:57:00,66.7,60.8,30.01,East,90,3.0,5.0,81,0.00,,,0.00,meteohub,2013-03-29 16:57:00,
2013-03-29 07:03:00,66.9,61.0,30.02,ESE,111,0.0,5.0,81,0.00,,,0.00,meteohub,2013-03-29 17:03:00,
2013-03-29 07:08:00,67.1,61.2,30.02,ESE,117,0.0,4.0,81,0.00,,,0.00,meteohub,2013-03-29 17:08:00,
2013-03-29 07:13:00,67.6,61.9,30.02,SSE,158,0.0,4.0,82,0.00,,,0.00,meteohub,2013-03-29 17:13:00,
2013-03-29 07:18:00,67.8,61.3,30.02,WSW,252,0.0,3.0,80,0.00,,,0.00,meteohub,2013-03-29 17:18:00,
2013-03-29 07:23:00,67.6,61.2,30.02,WNW,290,1.0,1.0,80,0.00,,,0.00,meteohub,2013-03-29 17:23:00,
2013-03-29 07:29:00,67.6,61.2,30.03,WNW,294,0.0,2.0,80,0.00,,,0.00,meteohub,2013-03-29 17:29:00,
2013-03-29 07:34:00,68.4,62.6,30.03,WNW,294,0.0,2.0,82,0.00,,,0.00,meteohub,2013-03-29 17:34:00,
2013-03-29 07:39:00,68.5,61.7,30.03,WNW,297,2.0,2.0,79,0.00,,,0.00,meteohub,2013-03-29 17:39:00,
2013-03-29 07:42:00,68.5,61.7,30.03,NNW,328,1.0,2.0,79,0.00,,,0.00,meteohub,2013-03-29 17:42:00,
2013-03-29 07:47:00,68.7,61.9,30.03,NW,319,1.0,3.0,79,0.00,,,0.00,meteohub,2013-03-29 17:47:00,
2013-03-29 07:52:00,68.7,61.5,30.04,NW,316,0.0,3.0,78,0.00,,,0.00,meteohub,2013-03-29 17:52:00,
2013-03-29 07:57:00,69.3,62.1,30.04,NW,323,0.0,3.0,78,0.00,,,0.00,meteohub,2013-03-29 17:57:00,
2013-03-29 08:02:00,69.6,62.1,30.04,NW,323,1.0,3.0,77,0.00,,,0.00,meteohub,2013-03-29 18:02:00,
2013-03-29 08:07:00,70.0,62.4,30.04,NW,304,3.0,3.0,77,0.00,,,0.00,meteohub,2013-03-29 18:07:00,
2013-03-29 08:12:00,69.8,62.2,30.04,NW,318,1.0,3.0,77,0.00,,,0.00,meteohub,2013-03-29 18:12:00,
2013-03-29 08:17:00,70.7,62.1,30.04,NW,304,0.0,5.0,74,0.00,,,0.00,meteohub,2013-03-29 18:17:00,
2013-03-29 08:22:00,71.2,62.6,30.04,WSW,250,1.0,5.0,74,0.00,,,0.00,meteohub,2013-03-29 18:22:00,
2013-03-29 08:27:00,71.8,63.0,30.04,SW,231,2.0,5.0,74,0.00,,,0.00,meteohub,2013-03-29 18:27:00,
2013-03-29 08:37:00,72.3,63.1,30.04,WSW,238,3.0,4.0,73,0.00,,,0.00,meteohub,2013-03-29 18:37:00,
2013-03-29 08:42:00,72.5,63.3,30.04,SW,233,1.0,6.0,73,0.00,,,0.00,meteohub,2013-03-29 18:42:00,
2013-03-29 08:47:00,72.9,63.3,30.04,WNW,283,2.0,6.0,72,0.00,,,0.00,meteohub,2013-03-29 18:47:00,
2013-03-29 08:52:00,72.9,63.3,30.04,WSW,256,1.0,6.0,72,0.00,,,0.00,meteohub,2013-03-29 18:52:00,
2013-03-29 08:57:00,73.2,64.0,30.04,SSE,156,1.0,6.0,73,0.00,,,0.00,meteohub,2013-03-29 18:57:00,
2013-03-29 09:02:00,73.0,63.5,30.05,WSW,240,1.0,6.0,72,0.00,,,0.00,meteohub,2013-03-29 19:02:00,
2013-03-29 09:07:00,73.8,64.2,30.04,West,276,1.0,6.0,72,0.00,,,0.00,meteohub,2013-03-29 19:07:00,
2013-03-29 09:10:00,73.8,64.2,30.04,West,267,3.0,6.0,72,0.00,,,0.00,meteohub,2013-03-29 19:10:00,
2013-03-29 09:17:00,73.8,63.7,30.04,West,267,1.0,4.0,71,0.00,,,0.00,meteohub,2013-03-29 19:17:00,
2013-03-29 09:22:00,73.6,64.4,30.04,West,261,4.0,5.0,73,0.00,,,0.00,meteohub,2013-03-29 19:22:00,
2013-03-29 09:27:00,73.6,64.4,30.04,South,187,2.0,5.0,73,0.00,,,0.00,meteohub,2013-03-29 19:27:00,
2013-03-29 09:32:00,73.8,64.2,30.04,WNW,294,1.0,5.0,72,0.00,,,0.00,meteohub,2013-03-29 19:32:00,
2013-03-29 09:33:00,73.8,63.7,30.04,SW,226,4.0,5.0,71,0.00,,,0.00,meteohub,2013-03-29 19:33:00,
2013-03-29 09:37:00,73.8,63.3,30.04,WSW,248,4.0,5.0,70,0.00,,,0.00,meteohub,2013-03-29 19:37:00,
2013-03-29 09:42:00,73.9,63.9,30.04,WSW,245,5.0,6.0,71,0.00,,,0.00,meteohub,2013-03-29 19:42:00,
2013-03-29 09:47:00,74.1,64.6,30.04,SW,217,5.0,7.0,72,0.00,,,0.00,meteohub,2013-03-29 19:47:00,
2013-03-29 09:52:00,74.1,64.0,30.04,WSW,239,4.0,7.0,71,0.00,,,0.00,meteohub,2013-03-29 19:52:00,
2013-03-29 09:57:00,74.1,64.0,30.04,West,263,2.0,8.0,71,0.00,,,0.00,meteohub,2013-03-29 19:57:00,
2013-03-29 10:02:00,74.1,64.6,30.04,West,275,4.0,8.0,72,0.00,,,0.00,meteohub,2013-03-29 20:02:00,
2013-03-29 10:07:00,74.3,64.8,30.04,WSW,246,4.0,7.0,72,0.00,,,0.00,meteohub,2013-03-29 20:07:00,
2013-03-29 10:12:00,74.1,64.0,30.04,West,259,4.0,7.0,71,0.00,,,0.00,meteohub,2013-03-29 20:12:00,
2013-03-29 10:17:00,74.5,65.3,30.04,West,267,4.0,6.0,73,0.00,,,0.00,meteohub,2013-03-29 20:17:00,
2013-03-29 10:22:00,74.5,64.9,30.03,WNW,287,3.0,7.0,72,0.00,,,0.00,meteohub,2013-03-29 20:22:00,
2013-03-29 10:28:00,74.5,65.7,30.04,WNW,288,3.0,8.0,74,0.00,,,0.00,meteohub,2013-03-29 20:28:00,
2013-03-29 10:33:00,74.5,65.3,30.03,WSW,253,4.0,8.0,73,0.00,,,0.00,meteohub,2013-03-29 20:33:00,
2013-03-29 10:38:00,74.8,65.1,30.03,SSW,205,5.0,9.0,72,0.00,,,0.00,meteohub,2013-03-29 20:38:00,
2013-03-29 10:43:00,75.2,65.5,30.03,WSW,255,3.0,9.0,72,0.00,,,0.00,meteohub,2013-03-29 20:43:00,
2013-03-29 10:48:00,75.2,64.8,30.03,SW,233,4.0,9.0,70,0.00,,,0.00,meteohub,2013-03-29 20:48:00,
2013-03-29 10:53:00,75.0,64.2,30.03,West,266,0.0,9.0,69,0.00,,,0.00,meteohub,2013-03-29 20:53:00,
2013-03-29 10:59:00,75.9,64.6,30.02,West,266,5.0,9.0,68,0.00,,,0.00,meteohub,2013-03-29 20:59:00,
2013-03-29 11:04:00,75.9,64.6,30.02,WSW,252,2.0,9.0,68,0.00,,,0.00,meteohub,2013-03-29 21:04:00,
2013-03-29 11:09:00,76.5,65.1,30.02,South,173,2.0,9.0,68,0.00,,,0.00,meteohub,2013-03-29 21:09:00,
2013-03-29 11:15:00,77.4,65.1,30.02,SE,135,3.0,9.0,66,0.00,,,0.00,meteohub,2013-03-29 21:15:00,
2013-03-29 11:17:00,77.5,65.3,30.01,East,98,1.0,7.0,66,0.00,,,0.00,meteohub,2013-03-29 21:17:00,
2013-03-29 11:22:00,78.8,66.0,30.01,ESE,109,3.0,7.0,65,0.00,,,0.00,meteohub,2013-03-29 21:22:00,
2013-03-29 11:27:00,79.0,64.8,30.01,ENE,64,1.0,7.0,62,0.00,,,0.00,meteohub,2013-03-29 21:27:00,
2013-03-29 11:32:00,79.3,66.0,30.01,WSW,243,2.0,7.0,64,0.00,,,0.00,meteohub,2013-03-29 21:32:00,
2013-03-29 11:37:00,79.3,65.7,30.01,NNW,339,7.0,7.0,63,0.00,,,0.00,meteohub,2013-03-29 21:37:00,
2013-03-29 11:42:00,78.3,66.0,30.00,West,273,9.0,9.0,66,0.00,,,0.00,meteohub,2013-03-29 21:42:00,
2013-03-29 11:47:00,77.5,65.7,30.01,NW,309,8.0,14.0,67,0.00,,,0.00,meteohub,2013-03-29 21:47:00,
2013-03-29 11:52:00,77.2,66.2,30.00,WNW,301,9.0,15.0,69,0.00,,,0.00,meteohub,2013-03-29 21:52:00,
2013-03-29 11:57:00,77.0,65.7,30.00,NW,307,10.0,15.0,68,0.00,,,0.00,meteohub,2013-03-29 21:57:00,
2013-03-29 12:02:00,76.5,65.5,30.00,WNW,297,7.0,15.0,69,0.00,,,0.00,meteohub,2013-03-29 22:02:00,
2013-03-29 12:03:00,76.5,66.0,30.00,WNW,284,8.0,15.0,70,0.00,,,0.00,meteohub,2013-03-29 22:03:00,
2013-03-29 12:07:00,76.3,65.8,30.00,WNW,285,11.0,14.0,70,0.00,,,0.00,meteohub,2013-03-29 22:07:00,
2013-03-29 12:12:00,75.9,65.8,30.00,NW,307,13.0,16.0,71,0.00,,,0.00,meteohub,2013-03-29 22:12:00,
2013-03-29 12:18:00,75.7,66.0,30.00,NW,323,14.0,18.0,72,0.00,,,0.00,meteohub,2013-03-29 22:18:00,
2013-03-29 12:22:00,75.6,65.8,30.00,WNW,291,13.0,18.0,72,0.00,,,0.00,meteohub,2013-03-29 22:22:00,
2013-03-29 12:24:00,75.6,65.8,30.00,NW,307,10.0,18.0,72,0.00,,,0.00,meteohub,2013-03-29 22:24:00,
2013-03-29 12:25:00,75.6,65.8,30.00,NW,321,14.0,18.0,72,0.00,,,0.00,meteohub,2013-03-29 22:25:00,
2013-03-29 12:32:00,75.2,65.5,29.99,NW,307,19.0,19.0,72,0.00,,,0.00,meteohub,2013-03-29 22:32:00,
2013-03-29 12:40:00,75.6,66.4,29.99,WNW,293,12.0,20.0,73,0.00,,,0.00,meteohub,2013-03-29 22:40:00,
2013-03-29 12:46:00,75.7,66.9,29.98,WNW,293,14.0,20.0,74,0.00,,,0.00,meteohub,2013-03-29 22:46:00,
2013-03-29 12:51:00,75.9,66.2,29.98,WNW,295,15.0,20.0,72,0.00,,,0.00,meteohub,2013-03-29 22:51:00,
2013-03-29 12:57:00,75.2,66.4,29.98,NW,314,11.0,20.0,74,0.00,,,0.00,meteohub,2013-03-29 22:57:00,
2013-03-29 13:02:00,74.7,65.8,29.98,NW,314,13.0,20.0,74,0.00,,,0.00,meteohub,2013-03-29 23:02:00,
2013-03-29 13:07:00,74.3,65.8,29.97,NNW,337,8.0,22.0,75,0.00,,,0.00,meteohub,2013-03-29 23:07:00,
2013-03-29 13:12:00,74.1,66.0,29.97,NW,309,9.0,22.0,76,0.00,,,0.00,meteohub,2013-03-29 23:12:00,
2013-03-29 13:17:00,74.1,66.0,29.97,WNW,301,14.0,21.0,76,0.00,,,0.00,meteohub,2013-03-29 23:17:00,
2013-03-29 13:22:00,74.1,66.4,29.97,WNW,302,14.0,23.0,77,0.00,,,0.00,meteohub,2013-03-29 23:22:00,
2013-03-29 13:27:00,74.5,66.4,29.97,NNW,335,14.0,23.0,76,0.00,,,0.00,meteohub,2013-03-29 23:27:00,
2013-03-29 13:31:00,74.5,66.4,29.97,NW,306,18.0,23.0,76,0.00,,,0.00,meteohub,2013-03-29 23:31:00,
2013-03-29 13:37:00,74.5,65.7,29.97,NW,310,16.0,22.0,74,0.00,,,0.00,meteohub,2013-03-29 23:37:00,
2013-03-29 13:42:00,74.1,65.7,29.96,WNW,291,15.0,22.0,75,0.00,,,0.00,meteohub,2013-03-29 23:42:00,
2013-03-29 13:47:00,74.1,65.7,29.97,WNW,300,18.0,22.0,75,0.00,,,0.00,meteohub,2013-03-29 23:47:00,
2013-03-29 13:52:00,74.5,66.0,29.97,WNW,296,13.0,22.0,75,0.00,,,0.00,meteohub,2013-03-29 23:52:00,
2013-03-29 13:55:00,74.3,65.5,29.96,WNW,294,13.0,21.0,74,0.00,,,0.00,meteohub,2013-03-29 23:55:00,
2013-03-29 14:02:00,74.1,66.4,29.97,WNW,297,11.0,23.0,77,0.00,,,0.00,meteohub,2013-03-30 00:02:00,
2013-03-29 14:11:00,74.7,67.3,29.96,NW,306,8.0,22.0,78,0.00,,,0.00,meteohub,2013-03-30 00:11:00,
2013-03-29 14:16:00,74.5,66.7,29.96,WNW,285,11.0,22.0,77,0.00,,,0.00,meteohub,2013-03-30 00:16:00,
2013-03-29 14:22:00,74.8,67.1,29.96,WNW,288,15.0,22.0,77,0.00,,,0.00,meteohub,2013-03-30 00:22:00,
2013-03-29 14:27:00,75.4,67.3,29.96,NW,306,12.0,22.0,76,0.00,,,0.00,meteohub,2013-03-30 00:27:00,
2013-03-29 14:32:00,75.6,67.1,29.96,NNE,29,14.0,22.0,75,0.00,,,0.00,meteohub,2013-03-30 00:32:00,
2013-03-29 14:35:00,75.4,66.9,29.95,NW,306,17.0,22.0,75,0.00,,,0.00,meteohub,2013-03-30 00:35:00,
2013-03-29 14:37:00,75.0,66.2,29.95,NNW,338,12.0,22.0,74,0.00,,,0.00,meteohub,2013-03-30 00:37:00,
2013-03-29 14:47:00,75.4,66.6,29.96,WNW,300,19.0,24.0,74,0.00,,,0.00,meteohub,2013-03-30 00:47:00,
2013-03-29 14:52:00,74.8,66.4,29.96,NW,315,10.0,24.0,75,0.00,,,0.00,meteohub,2013-03-30 00:52:00,
2013-03-29 14:57:00,74.1,66.0,29.96,NW,306,15.0,22.0,76,0.00,,,0.00,meteohub,2013-03-30 00:57:00,
2013-03-29 15:07:00,72.9,65.7,29.96,NNW,329,12.0,22.0,78,0.00,,,0.00,meteohub,2013-03-30 01:07:00,
2013-03-29 15:12:00,72.5,66.4,29.96,WNW,300,13.0,23.0,81,0.00,,,0.00,meteohub,2013-03-30 01:12:00,
2013-03-29 15:17:00,72.1,66.0,29.96,NNW,335,16.0,23.0,81,0.00,,,0.00,meteohub,2013-03-30 01:17:00,
2013-03-29 15:22:00,72.0,65.8,29.96,WNW,300,13.0,23.0,81,0.00,,,0.00,meteohub,2013-03-30 01:22:00,
2013-03-29 15:30:00,72.0,65.8,29.96,WNW,300,13.0,23.0,81,0.00,,,0.00,meteohub,2013-03-30 01:30:00,
2013-03-29 15:35:00,71.6,66.2,29.96,North,6,5.0,23.0,83,0.00,,,0.00,meteohub,2013-03-30 01:35:00,
2013-03-29 15:40:00,72.1,66.0,29.96,NW,314,13.0,23.0,81,0.00,,,0.00,meteohub,2013-03-30 01:40:00,
2013-03-29 15:46:00,72.1,65.7,29.96,WNW,290,5.0,21.0,80,0.00,,,0.00,meteohub,2013-03-30 01:46:00,
2013-03-29 15:51:00,72.3,65.5,29.96,NW,307,16.0,21.0,79,0.00,,,0.00,meteohub,2013-03-30 01:51:00,
2013-03-29 15:57:00,72.5,65.7,29.96,NW,319,12.0,21.0,79,0.00,,,0.00,meteohub,2013-03-30 01:57:00,
2013-03-29 16:02:00,72.5,66.0,29.97,NE,51,5.0,20.0,80,0.00,,,0.00,meteohub,2013-03-30 02:02:00,
2013-03-29 16:08:00,72.7,65.8,29.97,WNW,298,9.0,19.0,79,0.00,,,0.00,meteohub,2013-03-30 02:08:00,
2013-03-29 16:13:00,72.7,66.2,29.97,NW,326,10.0,20.0,80,0.00,,,0.00,meteohub,2013-03-30 02:13:00,
2013-03-29 16:18:00,72.3,66.2,29.97,WNW,302,13.0,22.0,81,0.00,,,0.00,meteohub,2013-03-30 02:18:00,
2013-03-29 16:23:00,72.1,66.4,29.97,WNW,293,6.0,22.0,82,0.00,,,0.00,meteohub,2013-03-30 02:23:00,
2013-03-29 16:29:00,72.0,65.8,29.97,NNW,337,11.0,22.0,81,0.00,,,0.00,meteohub,2013-03-30 02:29:00,
2013-03-29 16:34:00,72.0,66.2,29.98,WNW,286,5.0,19.0,82,0.00,,,0.00,meteohub,2013-03-30 02:34:00,
2013-03-29 16:42:00,72.0,65.8,29.98,NNW,338,5.0,15.0,81,0.00,,,0.00,meteohub,2013-03-30 02:42:00,
2013-03-29 16:47:00,72.0,65.8,29.98,NW,309,10.0,14.0,81,0.00,,,0.00,meteohub,2013-03-30 02:47:00,
2013-03-29 16:52:00,71.8,66.0,29.98,NW,306,9.0,15.0,82,0.00,,,0.00,meteohub,2013-03-30 02:52:00,
2013-03-29 16:57:00,71.6,65.8,29.98,NNE,32,4.0,15.0,82,0.00,,,0.00,meteohub,2013-03-30 02:57:00,
2013-03-29 17:02:00,71.4,66.0,29.98,NW,319,6.0,15.0,83,0.00,,,0.00,meteohub,2013-03-30 03:02:00,
2013-03-29 17:08:00,71.2,65.8,29.99,WNW,285,10.0,13.0,83,0.00,,,0.00,meteohub,2013-03-30 03:08:00,
2013-03-29 17:13:00,71.1,66.0,29.99,NNW,332,5.0,13.0,84,0.00,,,0.00,meteohub,2013-03-30 03:13:00,
2013-03-29 17:18:00,71.1,66.4,29.99,NW,307,3.0,13.0,85,0.00,,,0.00,meteohub,2013-03-30 03:18:00,
2013-03-29 17:24:00,71.1,66.4,29.99,WNW,287,4.0,12.0,85,0.00,,,0.00,meteohub,2013-03-30 03:24:00,
2013-03-29 17:29:00,70.9,66.2,29.99,NW,320,10.0,12.0,85,0.00,,,0.00,meteohub,2013-03-30 03:29:00,
2013-03-29 17:30:00,70.9,66.2,29.99,NW,308,7.0,12.0,85,0.00,,,0.00,meteohub,2013-03-30 03:30:00,
2013-03-29 17:37:00,70.5,65.8,29.99,NW,316,7.0,12.0,85,0.00,,,0.00,meteohub,2013-03-30 03:37:00,
2013-03-29 17:42:00,70.2,65.8,29.99,NW,311,3.0,15.0,86,0.00,,,0.00,meteohub,2013-03-30 03:42:00,
2013-03-29 17:47:00,70.0,65.7,29.99,NW,319,1.0,16.0,86,0.00,,,0.00,meteohub,2013-03-30 03:47:00,
2013-03-29 17:52:00,70.0,65.7,29.99,NW,310,7.0,16.0,86,0.00,,,0.00,meteohub,2013-03-30 03:52:00,
2013-03-29 17:57:00,69.8,65.5,29.99,NNW,335,3.0,14.0,86,0.00,,,0.00,meteohub,2013-03-30 03:57:00,
2013-03-29 18:00:00,69.8,65.5,29.99,NW,310,5.0,14.0,86,0.00,,,0.00,meteohub,2013-03-30 04:00:00,
2013-03-29 18:01:00,69.8,65.5,29.99,WNW,302,4.0,13.0,86,0.00,,,0.00,meteohub,2013-03-30 04:01:00,
2013-03-29 18:02:00,69.8,65.5,30.00,NNW,342,4.0,13.0,86,0.00,,,0.00,meteohub,2013-03-30 04:02:00,
2013-03-29 18:07:00,69.8,65.5,30.00,WNW,288,5.0,13.0,86,0.00,,,0.00,meteohub,2013-03-30 04:07:00,
2013-03-29 18:12:00,69.8,65.5,30.00,NW,317,8.0,10.0,86,0.00,,,0.00,meteohub,2013-03-30 04:12:00,
2013-03-29 18:19:00,69.8,65.5,30.00,NW,321,5.0,10.0,86,0.00,,,0.00,meteohub,2013-03-30 04:19:00,
2013-03-29 18:24:00,69.6,65.3,30.01,NNW,327,2.0,8.0,86,0.00,,,0.00,meteohub,2013-03-30 04:24:00,
2013-03-29 18:30:00,69.6,65.3,30.01,WNW,291,3.0,8.0,86,0.00,,,0.00,meteohub,2013-03-30 04:30:00,
2013-03-29 18:35:00,69.6,65.3,30.01,NW,306,0.0,8.0,86,0.00,,,0.00,meteohub,2013-03-30 04:35:00,
2013-03-29 18:40:00,69.4,65.1,30.01,NW,310,1.0,6.0,86,0.00,,,0.00,meteohub,2013-03-30 04:40:00,
2013-03-29 18:45:00,69.4,65.5,30.01,NW,308,1.0,5.0,87,0.00,,,0.00,meteohub,2013-03-30 04:45:00,
2013-03-29 18:51:00,69.4,65.5,30.01,West,281,2.0,5.0,87,0.00,,,0.00,meteohub,2013-03-30 04:51:00,
2013-03-29 18:56:00,69.4,65.5,30.01,WNW,300,3.0,5.0,87,0.00,,,0.00,meteohub,2013-03-30 04:56:00,
2013-03-29 19:01:00,69.4,65.1,30.01,NW,313,3.0,6.0,86,0.00,,,0.00,meteohub,2013-03-30 05:01:00,
2013-03-29 19:06:00,69.6,65.3,30.01,WNW,302,1.0,6.0,86,0.00,,,0.00,meteohub,2013-03-30 05:06:00,
2013-03-29 19:12:00,69.6,65.3,30.02,NW,315,2.0,6.0,86,0.00,,,0.00,meteohub,2013-03-30 05:12:00,
2013-03-29 19:17:00,69.6,65.3,30.02,WNW,291,4.0,4.0,86,0.00,,,0.00,meteohub,2013-03-30 05:17:00,
2013-03-29 19:19:00,69.6,65.3,30.02,NW,311,7.0,7.0,86,0.00,,,0.00,meteohub,2013-03-30 05:19:00,
2013-03-29 19:22:00,69.4,65.1,30.02,NNW,340,1.0,8.0,86,0.00,,,0.00,meteohub,2013-03-30 05:22:00,
2013-03-29 19:27:00,69.3,64.9,30.02,NNW,342,6.0,8.0,86,0.00,,,0.00,meteohub,2013-03-30 05:27:00,
2013-03-29 19:32:00,69.1,65.1,30.03,NNW,333,4.0,8.0,87,0.00,,,0.00,meteohub,2013-03-30 05:32:00,
2013-03-29 19:37:00,68.7,64.9,30.03,NNW,346,2.0,10.0,88,0.00,,,0.00,meteohub,2013-03-30 05:37:00,
2013-03-29 19:42:00,68.7,64.9,30.03,NNE,32,2.0,10.0,88,0.00,,,0.00,meteohub,2013-03-30 05:42:00,
2013-03-29 19:47:00,68.5,64.8,30.03,NW,321,0.0,7.0,88,0.00,,,0.00,meteohub,2013-03-30 05:47:00,
2013-03-29 19:49:00,68.5,65.1,30.03,NW,316,1.0,7.0,89,0.00,,,0.00,meteohub,2013-03-30 05:49:00,
2013-03-29 19:57:00,68.5,65.1,30.03,NW,305,2.0,5.0,89,0.00,,,0.00,meteohub,2013-03-30 05:57:00,
2013-03-29 20:02:00,68.5,65.1,30.03,NW,311,2.0,5.0,89,0.00,,,0.00,meteohub,2013-03-30 06:02:00,
2013-03-29 20:07:00,68.5,65.1,30.04,NW,324,0.0,5.0,89,0.00,,,0.00,meteohub,2013-03-30 06:07:00,
2013-03-29 20:12:00,68.5,65.1,30.04,WNW,300,1.0,5.0,89,0.00,,,0.00,meteohub,2013-03-30 06:12:00,
2013-03-29 20:17:00,68.4,64.9,30.04,NNW,331,1.0,5.0,89,0.00,,,0.00,meteohub,2013-03-30 06:17:00,
2013-03-29 20:22:00,68.4,64.9,30.04,WNW,300,2.0,6.0,89,0.00,,,0.00,meteohub,2013-03-30 06:22:00,
2013-03-29 20:27:00,68.2,65.1,30.04,NW,316,2.0,6.0,90,0.00,,,0.00,meteohub,2013-03-30 06:27:00,
2013-03-29 20:32:00,68.2,65.1,30.04,NW,316,0.0,5.0,90,0.00,,,0.00,meteohub,2013-03-30 06:32:00,
2013-03-29 20:37:00,68.2,65.1,30.04,North,11,1.0,5.0,90,0.00,,,0.00,meteohub,2013-03-30 06:37:00,
2013-03-29 20:42:00,68.2,65.1,30.05,North,354,1.0,4.0,90,0.00,,,0.00,meteohub,2013-03-30 06:42:00,
2013-03-29 20:47:00,68.2,65.1,30.04,NE,36,0.0,4.0,90,0.00,,,0.00,meteohub,2013-03-30 06:47:00,
2013-03-29 20:52:00,68.4,65.3,30.05,NE,56,1.0,3.0,90,0.00,,,0.00,meteohub,2013-03-30 06:52:00,
2013-03-29 20:58:00,68.2,65.1,30.05,NE,53,1.0,2.0,90,0.00,,,0.00,meteohub,2013-03-30 06:58:00,
2013-03-29 21:03:00,68.2,65.1,30.05,North,5,0.0,2.0,90,0.00,,,0.00,meteohub,2013-03-30 07:03:00,
2013-03-29 21:08:00,68.4,65.3,30.05,North,5,0.0,2.0,90,0.00,,,0.00,meteohub,2013-03-30 07:08:00,
2013-03-29 21:09:00,68.4,65.3,30.05,North,5,0.0,2.0,90,0.00,,,0.00,meteohub,2013-03-30 07:09:00,
2013-03-29 21:17:00,68.4,65.3,30.05,NNW,337,1.0,2.0,90,0.00,,,0.00,meteohub,2013-03-30 07:17:00,
2013-03-29 21:22:00,68.5,65.5,30.05,NW,318,1.0,3.0,90,0.00,,,0.00,meteohub,2013-03-30 07:22:00,
2013-03-29 21:27:00,68.5,65.5,30.05,NW,321,2.0,3.0,90,0.00,,,0.00,meteohub,2013-03-30 07:27:00,
2013-03-29 21:32:00,68.5,65.1,30.05,NW,319,0.0,3.0,89,0.00,,,0.00,meteohub,2013-03-30 07:32:00,
2013-03-29 21:37:00,68.5,65.1,30.05,East,98,0.0,3.0,89,0.00,,,0.00,meteohub,2013-03-30 07:37:00,
2013-03-29 21:42:00,68.5,65.1,30.05,East,98,0.0,3.0,89,0.00,,,0.00,meteohub,2013-03-30 07:42:00,
2013-03-29 21:47:00,68.5,65.1,30.05,NW,309,1.0,2.0,89,0.00,,,0.00,meteohub,2013-03-30 07:47:00,
2013-03-29 21:53:00,68.5,65.1,30.05,NW,308,1.0,2.0,89,0.00,,,0.00,meteohub,2013-03-30 07:53:00,
2013-03-29 21:58:00,68.4,64.9,30.05,WNW,294,0.0,2.0,89,0.00,,,0.00,meteohub,2013-03-30 07:58:00,
2013-03-29 22:03:00,68.4,64.9,30.05,SE,134,0.0,2.0,89,0.00,,,0.00,meteohub,2013-03-30 08:03:00,
2013-03-29 22:08:00,68.2,64.8,30.05,SE,134,0.0,1.0,89,0.00,,,0.00,meteohub,2013-03-30 08:08:00,
2013-03-29 22:16:00,68.2,64.8,30.05,SE,134,0.0,1.0,89,0.00,,,0.00,meteohub,2013-03-30 08:16:00,
2013-03-29 22:22:00,68.0,64.9,30.05,SSE,148,0.0,1.0,90,0.00,,,0.00,meteohub,2013-03-30 08:22:00,
2013-03-29 22:27:00,67.8,64.8,30.05,South,186,0.0,1.0,90,0.00,,,0.00,meteohub,2013-03-30 08:27:00,
2013-03-29 22:32:00,67.8,64.8,30.05,SW,222,0.0,1.0,90,0.00,,,0.00,meteohub,2013-03-30 08:32:00,
2013-03-29 22:33:00,67.8,64.8,30.05,SW,222,0.0,1.0,90,0.00,,,0.00,meteohub,2013-03-30 08:33:00,
2013-03-29 22:37:00,67.8,64.8,30.05,SSE,168,0.0,1.0,90,0.00,,,0.00,meteohub,2013-03-30 08:37:00,
2013-03-29 22:42:00,68.0,64.9,30.05,SSE,167,0.0,1.0,90,0.00,,,0.00,meteohub,2013-03-30 08:42:00,
2013-03-29 22:47:00,68.2,65.5,30.05,SSE,148,0.0,1.0,91,0.00,,,0.00,meteohub,2013-03-30 08:47:00,
2013-03-29 22:52:00,68.2,65.5,30.05,SE,146,0.0,1.0,91,0.00,,,0.00,meteohub,2013-03-30 08:52:00,
2013-03-29 22:57:00,68.4,65.7,30.05,South,173,0.0,1.0,91,0.00,,,0.00,meteohub,2013-03-30 08:57:00,
2013-03-29 22:58:00,68.2,65.5,30.05,SW,214,0.0,1.0,91,0.00,,,0.00,meteohub,2013-03-30 08:58:00,
2013-03-29 23:02:00,68.2,65.5,30.05,SW,231,0.0,1.0,91,0.00,,,0.00,meteohub,2013-03-30 09:02:00,
2013-03-29 23:07:00,68.4,65.7,30.05,SW,231,0.0,1.0,91,0.00,,,0.00,meteohub,2013-03-30 09:07:00,
2013-03-29 23:12:00,68.4,65.7,30.05,West,260,0.0,1.0,91,0.00,,,0.00,meteohub,2013-03-30 09:12:00,
2013-03-29 23:17:00,68.4,65.7,30.05,West,260,0.0,0.0,91,0.00,,,0.00,meteohub,2013-03-30 09:17:00,
2013-03-29 23:21:00,68.2,65.5,30.05,West,259,0.0,0.0,91,0.00,,,0.00,meteohub,2013-03-30 09:21:00,
2013-03-29 23:27:00,68.2,65.5,30.05,West,260,0.0,0.0,91,0.00,,,0.00,meteohub,2013-03-30 09:27:00,
2013-03-29 23:32:00,68.2,65.5,30.04,West,260,0.0,0.0,91,0.00,,,0.00,meteohub,2013-03-30 09:32:00,
2013-03-29 23:37:00,68.0,65.3,30.04,SE,133,0.0,0.0,91,0.00,,,0.00,meteohub,2013-03-30 09:37:00,
2013-03-29 23:42:00,67.8,65.1,30.04,SE,133,0.0,0.0,91,0.00,,,0.00,meteohub,2013-03-30 09:42:00,
2013-03-29 23:47:00,67.6,64.9,30.04,ESE,119,0.0,0.0,91,0.00,,,0.00,meteohub,2013-03-30 09:47:00,
2013-03-29 23:52:00,67.6,64.9,30.04,ESE,113,1.0,0.0,91,0.00,,,0.00,meteohub,2013-03-30 09:52:00,
2013-03-29 23:57:00,67.6,64.9,30.04,ESE,112,2.0,2.0,91,0.00,,,0.00,meteohub,2013-03-30 09:57:00,